(514348) = 2016 PM94

Discovered at Mount Lemmon on 2007-10-14 by Mt. Lemmon Survey.

Orbit

Orbit type: Main Belt

Note: WebGL enabled browser required.

epoch2023-02-25.0
epoch JD2460000.5
perihelion date2021-08-16.71835
perihelion JD2459443.21835
argument of perihelion (°)207.63180
ascending node (°)213.90302
inclination (°)3.62628
eccentricity0.0719741
perihelion distance (AU)2.5103161
Tisserand w.r.t. Jupiter3.4
ΔV w.r.t. Earth (km/sec)10.0
semimajor axis (AU)2.7050066
mean anomaly (°)123.45995
mean daily motion (°/day)0.22153960
aphelion distance (AU)2.900
period (years)4.45
P-vector [x]0.47714258
P-vector [y]0.81752601
P-vector [z]0.32246889
Q-vector [x]-0.87811750
Q-vector [y]0.45823304
Q-vector [z]0.13759410
absolute magnitude17.67
phase slope0.15
uncertainty0
referenceMPO 745323
observations used94
oppositions11
arc length (days)5691
first opposition used2007
last opposition used2023
residual rms (arc-secs)0.38
perturbers coarse indicatorM-v
perturbers precise indicator003Ek
first observation date used2007-10-14.0
last observation date used2023-05-14.0
computer nameMPCLINUX
JD of orbit computation2458161.366689
perihelion JD uncertainty (days)3.5340E-04
argument of perihelion uncertainty (°)1.3323E-04
ascending node uncertainty (°)1.0329E-04
inclination uncertainty (°)8.3797E-06
eccentricity uncertainty 6.5926E-08
perihelion distance uncertainty (AU)1.7003E-07
Minimum Orbit Intersection Distances (in AU)
for orbit epoch: 2460000.5, reference: E2023-JF5
Mercury2.1991
Venus1.78868
Earth1.52214
Mars0.96694
Jupiter2.33034
Saturn6.52496
Uranus15.676
Neptune27.2904

Observations

94 total observations over interval: 2007 10 14.28751 – 2023 05 14.301406
These data are available for download (format description).

Date (UT) J2000 RA J2000 Dec Magn Location Ref
2007 10 14.28751 00 43 06.49 +06 41 02.7 20.7 V G96 – Mt. Lemmon Survey MPS 854499
2007 10 14.29582 00 43 06.06 +06 40 58.9 21.1 V G96 – Mt. Lemmon Survey MPS 854499
2007 10 14.30436 00 43 05.66 +06 40 55.6 21.3 V G96 – Mt. Lemmon Survey MPS 854499
2007 10 14.31282 00 43 05.26 +06 40 52.2 21.4 V G96 – Mt. Lemmon Survey MPS 854499
2007 11 01.17829 00 31 13.87 +04 52 23.8 21.5 V G96 – Mt. Lemmon Survey MPS 854499
2007 11 01.18490 00 31 13.65 +04 52 22.0 21.4 V G96 – Mt. Lemmon Survey MPS 854499
2007 11 01.19149 00 31 13.44 +04 52 19.7 21.7 V G96 – Mt. Lemmon Survey MPS 854499
2007 11 01.19809 00 31 13.26 +04 52 18.5 21.5 V G96 – Mt. Lemmon Survey MPS 854499
2009 02 03.34173 09 05 14.67 +10 44 06.9 20.8 V G96 – Mt. Lemmon Survey MPS 854499
2009 02 03.34950 09 05 14.24 +10 44 09.3 20.9 V G96 – Mt. Lemmon Survey MPS 854499
2009 02 03.35714 09 05 13.81 +10 44 11.5 21.0 V G96 – Mt. Lemmon Survey MPS 854499
2009 02 03.36458 09 05 13.38 +10 44 13.2 20.9 V G96 – Mt. Lemmon Survey MPS 854499
2011 07 28.47626 21 52 54.564 -07 06 44.00 21.7 w F51 – Pan-STARRS 1, Haleakala MPS 854499
2011 07 28.49050 21 52 53.973 -07 06 46.81 21.7 w F51 – Pan-STARRS 1, Haleakala MPS 854499
2011 07 28.50473 21 52 53.385 -07 06 48.89 21.6 w F51 – Pan-STARRS 1, Haleakala MPS 854499
2013 01 18.26197 05 04 09.12 +18 15 32.1 21.2 V G96 – Mt. Lemmon Survey MPS 854499
2013 01 18.26784 05 04 08.97 +18 15 31.3 21.6 V G96 – Mt. Lemmon Survey MPS 854499
2013 01 18.27368 05 04 08.86 +18 15 31.6 21.3 V G96 – Mt. Lemmon Survey MPS 854499
2013 01 18.27953 05 04 08.72 +18 15 31.8 21.4 V G96 – Mt. Lemmon Survey MPS 854499
2014 04 20.24668 12 23 07.07 -04 27 12.3 21.7 V G96 – Mt. Lemmon Survey MPS 854499
2014 04 20.25448 12 23 06.73 -04 27 09.2 21.4 V G96 – Mt. Lemmon Survey MPS 854499
2014 04 20.26226 12 23 06.53 -04 27 07.1 21.7 V G96 – Mt. Lemmon Survey MPS 854499
2014 04 20.27004 12 23 06.21 -04 27 04.3 22.5 V G96 – Mt. Lemmon Survey MPS 854499
2016 08 10.51971 01 55 37.358 +13 48 57.40 22.3 w F51 – Pan-STARRS 1, Haleakala MPS 854499
2016 08 10.54556 01 55 38.224 +13 49 01.75 22.3 w F51 – Pan-STARRS 1, Haleakala MPS 854499
2016 08 10.55850 01 55 38.659 +13 49 04.20 22.0 w F51 – Pan-STARRS 1, Haleakala MPS 854499
2016 10 06.51293 01 50 14.917 +12 29 25.84 21.1 w F51 – Pan-STARRS 1, Haleakala MPS 854499
2016 10 06.52546 01 50 14.341 +12 29 21.76 21.1 w F51 – Pan-STARRS 1, Haleakala MPS 854499
2016 10 06.53795 01 50 13.762 +12 29 17.49 21.1 w F51 – Pan-STARRS 1, Haleakala MPS 854499
2016 10 06.55050 01 50 13.183 +12 29 13.02 21.1 w F51 – Pan-STARRS 1, Haleakala MPS 854499
2016 10 12.26967 01 45 47.70 +11 55 53.0 20.9 V G96 – Mt. Lemmon Survey MPS 854499
2016 10 12.27343 01 45 47.51 +11 55 50.8 20.8 V G96 – Mt. Lemmon Survey MPS 854499
2016 10 12.27725 01 45 47.26 +11 55 49.3 20.1 V G96 – Mt. Lemmon Survey MPS 854499
2016 10 12.28103 01 45 47.10 +11 55 48.6 20.1 V G96 – Mt. Lemmon Survey MPS 854499
2016 10 22.16922 01 37 37.48 +10 53 21.1 20.7 G G45 – Space Surveillance Telescope, Atom Site MPS 1611182
2016 10 22.22724 01 37 34.58 +10 52 58.4 20.9 G G45 – Space Surveillance Telescope, Atom Site MPS 1611182
2016 10 22.27604 01 37 31.94 +10 52 40.1 20.5 G G45 – Space Surveillance Telescope, Atom Site MPS 1611182
2016 10 22.32385 01 37 29.59 +10 52 21.9 20.0 G G45 – Space Surveillance Telescope, Atom Site MPS 1611182
2016 10 22.37064 01 37 27.12 +10 52 03.1 20.8 G G45 – Space Surveillance Telescope, Atom Site MPS 1611182
2016 11 07.26509 01 25 21.67 +09 14 18.9 21.1 V 691 – Steward Observatory, Kitt Peak-Spacewatch MPS 854499
2016 11 07.27806 01 25 21.16 +09 14 15.4 21.0 V 691 – Steward Observatory, Kitt Peak-Spacewatch MPS 854499
2016 11 07.29119 01 25 20.63 +09 14 10.7 21.2 V 691 – Steward Observatory, Kitt Peak-Spacewatch MPS 854499
2018 02 11.44161 09 53 02.818 +07 11 16.04 21.3 w F51 – Pan-STARRS 1, Haleakala MPS 867659
2018 02 11.45370 09 53 02.165 +07 11 19.65 21.3 w F51 – Pan-STARRS 1, Haleakala MPS 867659
2018 02 11.47785 09 53 00.851 +07 11 26.86 21.2 w F51 – Pan-STARRS 1, Haleakala MPS 867659
2019 05 01.51768 16 11 38.494 -19 01 15.70 21.9 w F51 – Pan-STARRS 1, Haleakala MPS 1144123
2019 05 01.52865 16 11 38.019 -19 01 13.61 21.7 w F51 – Pan-STARRS 1, Haleakala MPS 1144123
2019 05 01.53962 16 11 37.522 -19 01 11.59 21.7 w F51 – Pan-STARRS 1, Haleakala MPS 1144123
2019 05 01.55059 16 11 37.075 -19 01 09.11 21.7 w F51 – Pan-STARRS 1, Haleakala MPS 1144123
2019 06 01.37580 15 45 35.892 -17 10 10.98 21.6 w F51 – Pan-STARRS 1, Haleakala MPS 1012494
2019 06 01.38698 15 45 35.312 -17 10 08.74 21.8 w F51 – Pan-STARRS 1, Haleakala MPS 1012494
2019 06 01.39816 15 45 34.713 -17 10 06.31 21.7 w F51 – Pan-STARRS 1, Haleakala MPS 1012494
2019 07 01.34545 15 27 49.060 -15 57 05.09 22.0 w F51 – Pan-STARRS 1, Haleakala MPS 1012494
2019 07 01.36926 15 27 48.628 -15 57 03.63 22.0 w F51 – Pan-STARRS 1, Haleakala MPS 1012494
2019 07 01.38115 15 27 48.430 -15 57 02.67 22.1 w F51 – Pan-STARRS 1, Haleakala MPS 1012494
2020 07 28.52571 22 41 04.326 -02 59 45.57 21.5 w F51 – Pan-STARRS 1, Haleakala MPS 1227962
2020 07 28.53898 22 41 03.946 -02 59 47.07 21.6 w F51 – Pan-STARRS 1, Haleakala MPS 1227962
2020 07 28.55226 22 41 03.578 -02 59 48.70 21.7 w F51 – Pan-STARRS 1, Haleakala MPS 1227962
2020 08 13.41065 22 31 41.280 -03 48 51.23 21.4 w F51 – Pan-STARRS 1, Haleakala MPS 1239207
2020 08 13.42240 22 31 40.754 -03 48 54.16 21.6 w F51 – Pan-STARRS 1, Haleakala MPS 1239207
2020 08 13.43413 22 31 40.216 -03 48 57.18 21.5 w F51 – Pan-STARRS 1, Haleakala MPS 1239207
2020 08 13.44587 22 31 39.682 -03 49 00.11 21.5 w F51 – Pan-STARRS 1, Haleakala MPS 1239207
2020 08 18.28979 22 28 01.61 -04 10 47.9 22.1 G G96 – Mt. Lemmon Survey MPS 1239207
2020 08 18.29501 22 28 01.36 -04 10 48.9 21.8 G G96 – Mt. Lemmon Survey MPS 1239207
2020 08 18.30023 22 28 01.11 -04 10 50.6 21.4 G G96 – Mt. Lemmon Survey MPS 1239207
2020 08 18.30545 22 28 00.83 -04 10 51.9 21.8 G G96 – Mt. Lemmon Survey MPS 1239207
2020 08 21.44353 22 25 32.414 -04 26 16.33 21.2 w F51 – Pan-STARRS 1, Haleakala MPS 1239207
2020 08 21.51906 22 25 28.646 -04 26 39.05 21.5 w F51 – Pan-STARRS 1, Haleakala MPS 1239207
2020 08 21.57309 22 25 25.969 -04 26 55.66 21.5 w F51 – Pan-STARRS 1, Haleakala MPS 1239207
2020 08 21.58534 22 25 25.360 -04 26 59.24 21.3 w F51 – Pan-STARRS 1, Haleakala MPS 1239207
2020 08 23.39430 22 23 58.344 -04 36 17.42 21.1 w F52 – Pan-STARRS 2, Haleakala MPS 1239207
2020 08 23.40441 22 23 57.846 -04 36 20.42 21.4 w F52 – Pan-STARRS 2, Haleakala MPS 1239207
2020 08 23.42499 22 23 56.801 -04 36 27.08 21.3 w F52 – Pan-STARRS 2, Haleakala MPS 1239207
2020 08 23.43023 22 23 56.539 -04 36 28.63 21.2 w F51 – Pan-STARRS 1, Haleakala MPS 1239207
2020 08 23.44434 22 23 55.837 -04 36 33.11 21.4 w F51 – Pan-STARRS 1, Haleakala MPS 1239207
2020 08 23.45880 22 23 55.094 -04 36 37.61 21.3 w F51 – Pan-STARRS 1, Haleakala MPS 1239207
2020 08 23.47332 22 23 54.367 -04 36 42.09 21.1 w F51 – Pan-STARRS 1, Haleakala MPS 1239207
2020 09 12.36249 22 08 17.561 -06 26 52.91 21.4 w F52 – Pan-STARRS 2, Haleakala MPS 1285107
2020 09 12.38570 22 08 16.534 -06 27 00.44 21.7 w F52 – Pan-STARRS 2, Haleakala MPS 1285107
2020 09 12.39732 22 08 16.030 -06 27 04.42 21.5 w F52 – Pan-STARRS 2, Haleakala MPS 1285107
2022 01 26.144322 05 57 44.78 +18 20 31.7 21.25 G G96 – Mt. Lemmon Survey MPS 1550471
2022 01 26.149959 05 57 44.66 +18 20 32.5 21.25 G G96 – Mt. Lemmon Survey MPS 1550471
2022 01 26.155597 05 57 44.48 +18 20 33.2 21.48 G G96 – Mt. Lemmon Survey MPS 1550471
2022 01 26.161248 05 57 44.23 +18 20 33.1 20.83 G G96 – Mt. Lemmon Survey MPS 1550471
2023 04 24.390876 13 03 51.477 -07 54 19.84 21.44 w F52 – Pan-STARRS 2, Haleakala MPS 1877473
2023 04 24.403073 13 03 50.932 -07 54 15.94 21.78 w F52 – Pan-STARRS 2, Haleakala MPS 1877473
2023 04 24.415390 13 03 50.370 -07 54 11.37 21.60 w F52 – Pan-STARRS 2, Haleakala MPS 1877473
2023 04 25.338205 13 03 10.532 -07 48 50.30 21.54 w F52 – Pan-STARRS 2, Haleakala MPS 1877473
2023 04 25.350990 13 03 09.974 -07 48 46.22 21.47 w F52 – Pan-STARRS 2, Haleakala MPS 1877473
2023 04 25.363828 13 03 09.390 -07 48 41.64 21.46 w F52 – Pan-STARRS 2, Haleakala MPS 1877473
2023 04 25.376682 13 03 08.808 -07 48 37.48 21.71 w F52 – Pan-STARRS 2, Haleakala MPS 1877473
2023 05 14.267346 12 52 38.479 -06 17 45.57 21.83 w F51 – Pan-STARRS 1, Haleakala MPS 1888433
2023 05 14.289647 12 52 37.960 -06 17 41.13 22.28 w F51 – Pan-STARRS 1, Haleakala MPS 1888433
2023 05 14.301406 12 52 37.656 -06 17 38.40 22.16 w F51 – Pan-STARRS 1, Haleakala MPS 1888433